This demonstration page uses our WeatherBlox Daily Observations layout. Learn more.

Left ArrowRight Arrow

Hourly Observations for September 1, 2018

Temp ( °F °C ) Dew Point ( °F °C ) Humidity (%) Winds ( mph kmh ) Pressure ( in mb ) Visibility ( mi km ) Precip ( " mm )
12:54 am 00:54 Clear 80 26.7 72 22.2 76 76 SSE 15 24 29.74 1007 10 16 N/A
1:54 am 01:54 Clear 79 26.1 70 21.1 74 74 S 12 19 29.71 1006 10 16 N/A
2:54 am 02:54 Clear 82 27.8 69 20.6 65 65 SW 15 24 29.72 1006 10 16 N/A
3:54 am 03:54 Clear 78 25.6 66 18.9 67 67 NW 20 31 29.77 1008 10 16 N/A
4:54 am 04:54 Clear 73 22.8 62 16.7 69 69 ENE 3 6 29.76 1008 10 16 N/A
5:54 am 05:54 Clear 72 22.2 62 16.7 71 71 SSE 9 15 29.79 1009 10 16 N/A
6:54 am 06:54 Clear 72 22.2 62 16.7 71 71 SSE 5 7 29.82 1010 10 16 N/A
7:54 am 07:54 Sunny 73 22.8 64 17.8 74 74 N N/A 29.85 1011 10 16 N/A
8:54 am 08:54 Sunny 75 23.9 67 19.4 76 76 S 3 6 29.85 1011 10 16 N/A
9:54 am 09:54 Sunny 82 27.8 67 19.4 60 60 N N/A 29.86 1011 10 16 N/A
10:54 am 10:54 Sunny 85 29.4 68 20 57 57 N N/A 29.87 1012 10 16 N/A
11:54 am 11:54 Sunny 85 29.4 69 20.6 59 59 S 5 7 29.85 1011 10 16 N/A
12:54 pm 12:54 Sunny 86 30 69 20.6 57 57 SSE 5 7 29.84 1011 10 16 N/A
1:54 pm 13:54 Sunny 86 30 67 19.4 53 53 SW 8 13 29.86 1011 10 16 N/A
2:54 pm 14:54 Sunny 85 29.4 70 21.1 61 61 WNW 5 7 29.85 1011 10 16 N/A
3:54 pm 15:54 Sunny 87 30.6 67 19.4 51 51 N N/A 29.82 1010 10 16 N/A
4:54 pm 16:54 Sunny 88 31.1 65 18.3 46 46 N N/A 29.81 1010 10 16 N/A
5:29 pm 17:29 Sunny with Nearby Thunderstorms 90 32.2 66 18.9 45 45 N N/A 29.77 1008 10 16 N/A
5:44 pm 17:44 Sunny 88 31.1 69 20.6 54 54 VRB 3 6 29.77 1008 10 16 N/A
5:54 pm 17:54 Sunny 87 30.6 70 21.1 57 57 SSE 3 6 29.82 1010 10 16 N/A
6:54 pm 18:54 Mostly Sunny 84 28.9 70 21.1 63 63 NE 6 9 29.81 1010 10 16 N/A
7:17 pm 19:17 Sunny with Nearby Thunderstorms 83 28.3 70 21.1 65 65 N N/A 29.80 1009 10 16 N/A
7:54 pm 19:54 Partly Cloudy with Nearby Thunderstorms 81 27.2 71 21.7 72 72 N N/A 29.82 1010 10 16 N/A
8:28 pm 20:28 Mostly Cloudy with Thunderstorms 76 24.4 66 18.9 72 72 ESE 8 13 29.80 1009 10 16 N/A
8:54 pm 20:54 Mostly Cloudy with Thunderstorms 75 23.9 69 20.6 82 82 N N/A 29.81 1010 9 14 0.02 0.51
9:25 pm 21:25 Mostly Cloudy with Strong Thunderstorms 70 21.1 67 19.4 90 90 SSW 36 57 29.91 1013 2 3 0.01 0.25
9:29 pm 21:29 Mostly Cloudy with Strong Thunderstorms 69 20.6 66 18.9 90 90 SW 29 46 29.88 1012 1 1 0.02 0.51
9:32 pm 21:32 Mostly Cloudy with Nearby Thunderstorms 68 20 66 18.9 93 93 SW 24 39 29.88 1012 1 1 0.10 2.54
9:38 pm 21:38 Mostly Cloudy with Strong Thunderstorms 68 20 66 18.9 93 93 SSW 21 33 29.91 1013 1 2 0.39 9.91
9:51 pm 21:51 Windy with Storms Likely 72 22 66 19 83 83 SSW 22 35 29.88 1012 3 5 0.65 16.51
9:54 pm 21:54 Cloudy with Thunderstorms 71 21.7 67 19.4 87 87 SSW 22 35 29.88 1012 7 11 0.66 16.76
10:02 pm 22:02 Cloudy with Thunderstorms 73 22.8 66 18.9 79 79 SW 28 44 29.91 1013 5 8 0.01 0.25
10:18 pm 22:18 Cloudy with Nearby Thunderstorms 77 25 64 17.8 64 64 SSW 15 24 29.88 1012 9 14 0.03 0.76
10:27 pm 22:27 Mostly Cloudy with Rain 77 25 65 18.3 66 66 S 10 17 29.88 1012 7 11 0.05 1.27
10:36 pm 22:36 Mostly Cloudy with Nearby Thunderstorms 78 25.6 65 18.3 64 64 SSW 15 24 29.91 1013 9 14 0.06 1.52
10:54 pm 22:54 Mostly Cloudy with Thunderstorms 77 25 64 17.8 64 64 SW 20 31 29.95 1014 5 8 0.09 2.29
11:20 pm 23:20 Mostly Cloudy with Nearby Thunderstorms 78 25.6 65 18.3 64 64 SSE 6 9 29.91 1013 9 14 0.11 2.79
11:34 pm 23:34 Cloudy with Thunderstorms 78 25.6 65 18.3 64 64 SSE 7 11 29.91 1013 5 8 0.13 3.30
11:49 pm 23:49 Cloudy with Nearby Thunderstorms 79 26 66 19 65 65 VRB 5 7 29.91 1013 6 10 0.15 3.81

Powered by AerisWeather